Terminal Aerodrome Forecast
Issued by NWS Wichita, KS

Home | Current Version | Previous Version | Text Only | Print | Product List | Glossary Off
Versions: 1 2 3 4 5 6 7 8 9 10 11 12 13 14 15 16 17 18 19 20 21 22 23 24 25 26 27

000
FTUS43 KICT 281540 AAB
TAFICT
TAF AMD
KICT 281540Z 2816/2912 13013KT P6SM SCT020 BKN035
      TEMPO 2816/2818 BKN012
     FM281800 18012KT P6SM SCT050
     FM290300 16010KT P6SM BKN025
     FM290600 15008KT P6SM VCTS SCT025CB OVC080=

USA.gov is the U.S. government's official web portal to all federal, state and local government web resources and services.